Home   Weather   Christchurch   Past weeks
Flag for New Zealand

Past Weather in Christchurch, New Zealand — Yesterday and Last 2 Weeks

Now
61 °F

Passing clouds.


Feels Like: 61 °F
Forecast: 68 / 60 °F
Wind: 8 mph from East

Location: Christchurch Airport

Current Time: Mar 20, 2019 at 12:28:31 am

Latest Report: Mar 19, 2019 at 11:30 pm


Visibility: N/A

Pressure: 30.30 "Hg

Humidity: 88%

Dew Point: 57 °F

Location of ChristchurchLocation

Past Weather in Christchurch — Graph

°F

Christchurch Temperature Yesterday

Maximum temperature yesterday: 70 °F (at 3:00 pm)
Minimum temperature yesterday: 59 °F (at 12:00 am)
Average temperature yesterday: 62 °F

High & Low Weather Summary for the Past Weeks

 TemperatureHumidityPressure
High86 °F (Mar 12, 3:30 pm)100% (Mar 6, 7:00 am)30.42 "Hg (Mar 6, 7:00 am)
Low48 °F (Mar 5, 6:00 am)22% (Mar 5, 2:00 pm)29.71 "Hg (Mar 13, 3:30 pm)
Average62 °F77%30.09 "Hg
* Reported Mar 4 11:00 pm — Mar 19 11:30 pm, Christchurch. Weather by CustomWeather, © 2019

Note: Actual official high and low records may vary slightly from our data, if they occured in-between our weather recording intervals... More about our weather records

Advertising

Christchurch Weather History for the Previous 24 Hours

Scroll right to see more
 ConditionsComfort  
Time TempWeatherWind HumidityBarometerVisibility
11:30 pm
Tue, Mar 19
61 °FPassing clouds.8 mph88%30.30 "HgN/A
11:00 pm61 °FPassing clouds.7 mph88%30.30 "HgN/A
10:30 pm61 °FPassing clouds.9 mph88%30.30 "HgN/A
10:00 pm61 °FOvercast.9 mph88%30.30 "HgN/A
9:30 pm61 °FOvercast.9 mph88%30.30 "HgN/A
9:00 pm61 °FOvercast.10 mph88%30.27 "HgN/A
8:30 pm61 °FOvercast.12 mph88%30.27 "HgN/A
8:00 pm63 °FMostly cloudy.12 mph83%30.27 "HgN/A
7:30 pm63 °FPartly sunny.14 mph83%30.27 "HgN/A
7:00 pm63 °FPartly sunny.13 mph83%30.27 "HgN/A
6:30 pm63 °FPartly sunny.13 mph83%30.24 "HgN/A
6:00 pm64 °FPartly sunny.15 mph78%30.24 "HgN/A
5:30 pm66 °FScattered clouds.13 mph73%30.24 "HgN/A
5:00 pm68 °FPassing clouds.14 mph69%30.24 "HgN/A
4:30 pm68 °FPassing clouds.13 mph69%30.24 "HgN/A
4:00 pm68 °FMild.9 mph60%30.27 "HgN/A
3:30 pm70 °FPassing clouds.9 mph57%30.27 "HgN/A
3:00 pm70 °FPartly sunny.8 mph60%30.27 "HgN/A
2:30 pm66 °FPartly sunny.7 mph68%30.30 "HgN/A
1:30 pm68 °FPartly sunny.3 mph60%30.30 "HgN/A
1:00 pm66 °FMore clouds than sun.5 mph68%30.30 "HgN/A
12:30 pm66 °FMostly cloudy.7 mph68%30.30 "HgN/A
12:00 pm66 °FPartly sunny.3 mph64%30.33 "HgN/A
11:30 am66 °FPartly sunny.6 mph73%30.33 "HgN/A
11:00 am64 °FOvercast.5 mph78%30.33 "HgN/A
10:30 am63 °FOvercast.2 mph83%30.33 "HgN/A
10:00 am63 °FOvercast.No wind83%30.33 "HgN/A
9:30 am61 °FOvercast.2 mph88%30.33 "HgN/A
9:00 am61 °FOvercast.2 mph88%30.33 "HgN/A
8:30 am59 °FOvercast.1 mph94%30.30 "HgN/A
8:00 am59 °FOvercast.3 mph94%30.30 "HgN/A
7:30 am59 °FOvercast.1 mph94%30.30 "HgN/A
7:00 am59 °FOvercast.1 mph94%30.30 "HgN/A
6:30 am59 °FOvercast.No wind94%30.27 "HgN/A
6:00 am59 °FOvercast.1 mph94%30.27 "HgN/A
5:30 am59 °FOvercast.2 mph94%30.30 "HgN/A
5:00 am59 °FPassing clouds.1 mph94%30.30 "HgN/A
4:30 am59 °FOvercast.2 mph94%30.30 "HgN/A
4:00 am59 °FOvercast.1 mph94%30.30 "HgN/A
3:30 am59 °FOvercast.1 mph88%30.30 "HgN/A
3:00 am59 °FOvercast.No wind94%30.27 "HgN/A
2:30 am59 °FOvercast.2 mph88%30.30 "HgN/A
2:00 am59 °FOvercast.2 mph94%30.30 "HgN/A
1:30 am59 °FPassing clouds.2 mph88%30.30 "HgN/A
1:00 am59 °FOvercast.2 mph88%30.30 "HgN/A
12:30 am59 °FMostly cloudy.2 mph88%30.30 "HgN/A
12:00 am59 °FOvercast.5 mph88%30.30 "HgN/A
Weather by CustomWeather, © 2019

See weather overview